User: anonymous   Login
Location: Feigenhofen
(48.4939°N, 10.7793°E)
Time: 19:18:12
(UTC+00:00)
Language:

COSMOS 2441 - Orbit

View from above orbital plane
View from above orbital plane
View from above satellite
View from above satellite

Ground track
Ground track

The orbit data is extracted from the following two-line orbital elements,

1 33272U 08037A   22229.45609332  .00000095  00000-0  34340-4 0  9996
2 33272  98.1522 179.6413 0015795 332.2010  27.8340 14.51955199744845
Epoch (UTC): 17 August 2022 10:56:46
Eccentricity: 0.0015795
inclination: 98.1522°
perigee height: 708 km
apogee height: 730 km
right ascension of ascending node: 179.6413°
argument of perigee: 332.2010°
revolutions per day: 14.51955199
mean anomaly at epoch: 27.8340°
orbit number at epoch: 74484

The dashed part of the orbit path shows where the satellite is in the earth's shadow,  

DLR